www.pogodaiklimat.ru

Погода и климат >> Архив погоды >> Россия >> Татарстан >> Мензелинск


ПОГОДА в Мензелинске

  • Прогноз погоды в Мензелинске
  • Монитор погоды в Мензелинске

АРХИВ ПОГОДЫ в Мензелинске

Время (UTC), дата Ветер
(напр.,м/с)
 
Видим.   Явления Облачность Т
(С)
Тd
(С)
f
(%)
Тe
(С)
Тes
(С)
Комфортность P
(гПа)
Po
(гПа)
Тmin
(С)
Tmax
(С)
R
(мм)
R24
(мм)
S
(см)
18 17.06 СЗ 3 10 км {ливн. осадки} 8/3 600 м
[Sc Ac As Ci fib]
+14.0 +10.3 78 +13 +13 1007.4 994.3
21 17.06 СВ 1 10 км 10/3 600 м
[Sc Ci fib]
+10.8 +6.1 73 +11 +11 1009.1 995.8
00 18.06 штиль 0 10 км 5/0
[Ac trans]
+8.8 +6.6 86 +8 +8 1010.1 996.7
03 18.06 В 1 10 км 3/0
[Ac cast Ci fib]
+16.1 +7.0 55 +17 +21 1011.0 997.9 +8.6 0.8
06 18.06 В 2 10 км 3/3 600 м
[Sc diur, vesp]
+18.2 +6.7 47 +19 +27 1011.3 998.3
09 18.06 З 2 10 км 3/1 600 м
[Sc diur, vesp Ci fib]
+19.1 +2.8 34 +20 +33 опасность
простуды
1011.2 998.2
12 18.06 С 3 10 км 5/0
[Ci fib]
+20.4 +2.3 30 +21 +28 комфорт 1010.6 997.7
15 18.06 ЮВ 2 10 км 6/0
[Ac trans]
+19.7 +4.2 36 +21 +22 комфорт 1009.7 996.7 +21.3
18 18.06 ЮЗ 1 10 км 4/0
[Ac trans]
+14.8 +6.1 56 +15 +15 1009.9 996.7
21 18.06 ЮЗ 2 10 км 4/0
[Ac trans]
+12.0 +5.3 64 +11 +11 1009.8 996.5
00 19.06 ЮЗ 2 10 км 8/0
[Ac trans]
+11.1 +6.0 71 +10 +10 1009.7 996.4
03 19.06 ЮЗ 2 10 км 10/4 600 м
[Sc diur, vesp Ac As]
+15.9 +8.0 59 +16 +17 1009.6 996.5 +11.1
06 19.06 ЮЗ 1 10 км 10/4 600 м
[Sc Ac lent Ci fib]
+17.7 +12.1 70 +19 +23 1009.9 996.9
09 19.06 ЮЗ 4 10 км 8/3 600 м
[Cu Sc Ac lent Ci fib]
+21.7 +11.8 53 +24 +29 комфорт 1009.6 996.8
12 19.06 ЮЗ 3 10 км 6/3 600 м
[Cu med, cong Ac lent Ci fib]
+23.5 +10.7 44 +25 +29 комфорт 1009.2 996.5
15 19.06 штиль 0 10 км 5/3 600 м
[Sc diur, vesp Ci ing]
+20.7 +10.6 52 +22 +23 комфорт 1009.6 996.7 +24.0
18 19.06 штиль 0 10 км 6/3 600 м
[Sc diur, vesp Ac lent Ci ing]
+17.3 +11.0 66 +17 +17 1010.2 997.2
21 19.06 ЮЗ 1 10 км ясно +13.2 +10.5 84 +13 +13 1010.9 997.6
00 20.06 З 2 10 км 4/0
[Ci fib]
+11.6 +9.4 86 +10 +10 1011.7 998.3
03 20.06 З 2 10 км 8/0
[Ci fib]
+17.2 +13.1 77 +18 +21 1012.0 999.0 +11.3
06 20.06 СЗ 2 10 км 10/1 600 м
[Cu med, cong Cc]
+23.9 +13.4 52 +26 +35 жарко 1012.2 999.4
09 20.06 СЗ 3 10 км 8/5 1000 м
[Cu med, cong Ci fib]
+26.3 +10.7 38 +27 +33 жарко 1011.8 999.1
12 20.06 З 3 10 км 10/3 1000 м
[Cu med, cong Ci fib]
+25.9 +11.4 40 +27 +31 жарко 1011.0 998.4
15 20.06 З 3 10 км 3/3 1000 м
[Sc Ci fib]
+25.9 +10.9 39 +27 +28 жарко 1010.9 998.2 +27.1
18 20.06 СЗ 3 10 км ?/? +18.9 +10.5 58 +20 +20 1012.1 999.1
21 20.06 СВ 1 10 км ясно +17.5 +9.6 60 +19 +19 1013.3 1000.2
00 21.06 З 1 10 км ясно +13.8 +9.6 76 +14 +14 1014.1 1000.8
03 21.06 СЗ 3 10 км ясно +19.8 +11.8 60 +22 +25 комфорт 1015.3 1002.3 +13.5
06 21.06 С 2 10 км 8/0
[Ac trans Ci fib]
+22.2 +10.7 48 +24 +32 комфорт 1016.3 1003.4
09 21.06 С 4 10 км 10/3 1000 м
[Cu hum Ci fib]
+24.7 +7.3 33 +25 +31 комфорт 1016.9 1004.1
12 21.06 С 5 10 км 10/4 600 м
[Cu hum Ci fib]
+25.7 +8.2 33 +26 +28 жарко 1016.9 1004.1
15 21.06 С 4 10 км 8/3 600 м
[Sc Ac trans Ci fib]
+24.5 +10.2 40 +25 +26 комфорт 1016.5 1003.7 +25.7
18 21.06 СЗ 2 10 км 3/0
[Ci fib]
+17.9 +11.6 67 +18 +18 1017.7 1004.6
21 21.06 ЮЗ 1 10 км 3/0
[Ci fib]
+13.9 +10.3 79 +14 +14 1018.5 1005.2
00 22.06 З 1 10 км 5/0
[Ci fib]
+12.9 +10.4 85 +13 +13 1019.4 1006.0
03 22.06 штиль 0 10 км 5/0
[Ac trans Ci fib]
+19.2 +12.5 65 +20 +24 1019.7 1006.7 +11.5
06 22.06 ЮЗ 2 10 км 5/0
[Ci fib]
+24.4 +11.0 43 +26 +37 жарко 1019.2 1006.4
09 22.06 ЮЗ 3 10 км 3/1 1000 м
[Cu hum Ci fib]
+27.5 +11.5 37 +28 +40 жарко 1018.2 1005.5
12 22.06 З 4 10 км 9/3 1000 м
[Cu med, cong Ci fib]
+28.8 +10.4 32 +29 +33 жарко 1016.8 1004.2
15 22.06 ЮЗ 3 10 км 10/0
[Ci fib]
+27.5 +11.0 36 +28 +29 жарко 1015.4 1002.7 +29.0
18 22.06 З 3 10 км 10/0
[Ac trans Ci fib]
+20.6 +12.3 59 +23 +23 комфорт 1015.3 1002.3
21 22.06 ЮЗ 4 10 км 10/0
[Ac trans]
+20.3 +11.0 55 +22 +22 комфорт 1014.6 1001.6
00 23.06 ЮЗ 4 10 км 10/0
[Ac trans]
+18.7 +11.0 61 +19 +19 1014.1 1000.9
03 23.06 ЮЗ 4 10 км 6/0
[Ac trans]
+21.3 +12.7 58 +24 +25 комфорт 1013.6 1000.7 +18.4
06 23.06 З 4 10 км 8/0
[Ac trans]
+26.5 +15.2 50 +29 +34 жарко 1013.2 1000.6
09 23.06 СЗ 7-10
{11}
10 км 4/1 1000 м
[Cu med, cong Ac trans Cc]
+30.2 +14.6 39 +32 +36 жарко 1012.6 1000.1
12 23.06 СЗ 6
{12}
10 км 6/3 600 м
[Cu med, cong Ac trans Ci fib]
+29.0 +15.0 43 +32 +34 душно 1012.4 999.9
15 23.06 З 4 10 км 3/0
[Ac lent Ci fib]
+28.2 +16.0 48 +31 +32 душно 1012.4 999.8 +30.7
18 23.06 СЗ 3 10 км 3/1 600 м
[Sc diur, vesp Ac lent Ci fib]
+23.6 +15.4 60 +27 +27 жарко 1013.7 1000.9
21 23.06 СЗ 2 10 км 6/3 600 м
[Sc diur, vesp Ac lent]
+21.1 +15.6 71 +24 +24 комфорт 1014.0 1001.1
00 24.06 С 2 10 км 6/3 600 м
[Sc diur, vesp Ac lent Ci fib]
+19.0 +14.9 77 +21 +21 комфорт 1015.4 1002.4
03 24.06 С 1 10 км 3/0
[Ci fib]
+23.5 +12.9 51 +26 +29 жарко 1015.5 1002.7 +18.4
06 24.06 СЗ 1 10 км 3/1 1000 м
[Cu hum Ci fib]
+26.2 +11.5 40 +27 +40 жарко 1015.5 1002.8
09 24.06 С 5 10 км 4/3 1000 м
[Cu med, cong Ci fib]
+26.8 +10.2 35 +27 +33 жарко 1014.9 1002.2
12 24.06 С 4 10 км 10/3 600 м
[Cu med, cong Ac As]
+25.2 +11.3 42 +27 +28 жарко 1014.7 1001.9
15 24.06 С 1 10 км {ливн. осадки} 10/4 600 м
[Sc Ac As]
+20.8 +13.0 61 +24 +25 комфорт 1014.2 1001.2 +27.1

 

Местоположение метеостанции Мензелинск (Татарстан, Россия): широта 55.72 долгота 53.07 высота над уровнем моря 112 м.

В архиве по умолчанию представлена погода в Мензелинске за последнюю неделю. Архивные данные за месяц целиком и за предыдущие месяцы, начиная с января 2011 года, Вы можете получить, выбрав интересующий диапазон дат из раскрывающегося списка и нажав кнопку "Ввод!".


*Определитесь, кто Вы:
робот инопланетянин человек

Внимание! Время в таблицах - всемирное. Для получения местного времени необходимо прибавить поправку, которая равна 3 ч.

Смотрите также архив погоды в соседних городах и на ближайших метеорологических станциях:

Погода в Муслюмово (Татарстан, Россия) (45 км)
Погода в Бегишево (Татарстан, Россия) (63 км)
Погода в Елабуге (Татарстан, Россия) (64 км)
Погода в Бакалах (Башкирия, Россия) (76 км)
Погода в Верхнеяркеево (Башкирия, Россия) (86 км)
Погода в Сарапуле (Удмуртия, Россия) (93 км)
Погода в Азнакаево (Татарстан, Россия) (95 км)
Погода в Можге (Удмуртия, Россия) (96 км)
Погода в Акташе (Татарстан, Россия) (96 км)
Погода в Отарке (Татарстан, Россия) (107 км)

Пояснения к столбцам:

Ветер - указаны скорость ветра в м/с - средняя за 10 мин, порывы в срок и между сроками (в фигурных скобках) и направление, откуда дует ветер: С - северный, СВ - северо-восточный, В - восточный, ЮВ - юго-восточный, Ю - южный, ЮЗ - юго-западный, З - западный, СЗ - северо-западный.
Видимость - горизонтальная дальность видимости в метрах или километрах. При видимости от 1 до 10 км при отсутствии осадков обычно наблюдается дымка, при ухудшении видимости до 1 км и менее - туман. В сухую погоду видимость может ухудшаться дымом, пылью или мглою.
Явления - указаны атмосферные явления, наблюдавшиеся в срок или в последний час перед сроком; фигурными скобками обозначены явления, наблюдавшиеся между сроками (за 1-3 часа до срока); квадратными скобками обозначены град или гололедные отложения с указанием их диаметра в мм.
Облачность - указаны через наклонную черту общая и нижняя облачность в баллах и высота нижней границы облаков в метрах; квадратными скобками обозначены формы облаков: Ci - перистые, Cs - перисто-слоистые, Cc - перисто-кучевые, Ac - высококучевые, As - высокослоистые, Sc - слоисто-кучевые, Ns - слоисто-дождевые, Cu - кучевые, Cb - кучево-дождевые. Подробнее классификацию облаков см. в Атласе облаков (PDF).
T - Температура воздуха - температура, измеренная на высоте 2 м над землей.
Td - Температура точки росы - температура, при понижении до которой содержащийся в воздухе водяной пар достигнет насыщения.
f - Относительная влажность воздуха - влажноcть воздуха, измеренная на высоте 2 м над землей.
Te - Эффективная температура - температура, которую ощущает одетый по сезону человек в тени. Характеристика душности погоды. При расчете учитывается влияние влажности воздуха и скорости ветра на теплоощущения человека.
Tes - Эффективная температура на солнце - температура, которую ощущает человек, с поправкой на солнечный нагрев. Характеристика знойности погоды. Зависит от высоты солнца над горизонтом, облачности и скорости ветра. Ночью, в пасмурную погоду, а также при ветре 12 м/с и более поправка равна нулю.
P - Атмосферное давление - приведенное к уровню моря атмосферное давление.
Po - Атмосферное давление - измеренное на уровне метеостанции атмосферное давление.
Tmin - Минимальная температура - минимум температуры воздуха на высоте 2 м над землей.
Tmax - Максимальная температура - максимум температуры воздуха на высоте 2 м над землей.
R - Количество осадков - Количество выпавших осадков за период времени, мм. При наведении курсора мыши на число - период времени, за который выпало указанное количество осадков.
R24 - Количество осадков - Количество выпавших осадков за 24 часа, мм.
S - Снежный покров - Высота снежного покрова, см. При наведении курсора мыши на число - состояние снежного покрова и степень покрытия местности в баллах.